Skip Page Navigation
NASA JPL Caltech
NASA Logo - Jet Propulsion Laboratory + View the NASA Portal
+ Center for Near-Earth Object Studies
JPL Home Earth Solar System Stars & Galaxies Technology
JPL Solar System Dynamics
BODIES ORBITS EPHEMERIDES TOOLS PHYSICAL DATA DISCOVERY FAQ SITE MAP
IMPORTANT: The SSD Announcement email list is now available. Major changes are coming in the near future, including possible hostname and/or URL changes. To be notified of such changes, subscribe to this email list.

Please visit this page for more details.


JPL Small-Body Database Browser
Search: [ help ]  
8563 (1995 US)
Classification: Main-belt Asteroid          SPK-ID: 2008563
Ephemeris | Orbit Diagram | Orbital Elements | Mission Design | Physical Parameters | Discovery Circumstances | Close-Approach Data ]

[ show orbit diagram ]
Orbital Elements at Epoch 2458600.5 (2019-Apr-27.0) TDB
Reference: JPL 28 (heliocentric ecliptic J2000)
 Element Value Uncertainty (1-sigma)   Units 
e .1231691177296848 7.1352e-08  
a 2.970325807307568 2.1797e-08 au
q 2.604473398251781 2.1965e-07 au
i 21.50589239381866 6.7151e-06 deg
node 327.7019944140186 1.0452e-05 deg
peri 354.0557330552323 1.9432e-05 deg
M 271.1894437452216 1.7144e-05 deg
tp 2459061.782149901266
(2020-Jul-31.28214990)
8.9681e-05 TDB
period 1869.8404893227
5.12
2.0582e-05
5.635e-08
d
yr
n .1925297917419686 2.1192e-09 deg/d
Q 3.336178216363355 2.4482e-08 au
  Orbit Determination Parameters
   # obs. used (total)      1744  
   data-arc span      23599 days (64.61 yr)  
   first obs. used      1954-09-27  
   last obs. used      2019-05-08  
   planetary ephem.      DE431  
   SB-pert. ephem.      SB431-N16  
   condition code      0  
   norm. resid. RMS      .41055  
   source      ORB  
   producer      Otto Matic  
   solution date      2019-May-30 01:36:06  

Additional Information
 Earth MOID = 1.59228 au 
 Jupiter MOID = 2.0185 au 
 T_jup = 3.147 
[ show covariance matrix ]

Ephemeris | Orbit Diagram | Orbital Elements | Mission Design | Physical Parameters | Discovery Circumstances | Close-Approach Data ]

Physical Parameter Table
Parameter Symbol Value Units Sigma Reference Notes
absolute magnitude H 11.7   n/a MPO347594  
diameter diameter 14.473 km 0.201 urn:nasa:pds:neowise_diameters_albedos::2.0[mainbelt] (http://adsabs.harvard.edu/abs/2014ApJ...791..121M)  
rotation period rot_per 3.197 h n/a LCDB (Rev. 2019-January); Warner et al., 2009 Published Reference List:
[Papini, R.; Marchini, A.; Marullo, S. (2016) Minor Planet Bull. 43, 88.]
geometric albedo albedo 0.147   0.034 urn:nasa:pds:neowise_diameters_albedos::2.0[mainbelt] (http://adsabs.harvard.edu/abs/2014ApJ...791..121M)  

8563 (1995 US)          Discovered 1995-Oct-19 by Spahr, T. B. at Catalina Station
Reference: 19980313/Numbers.arcLast Updated: 2004-04-19

[ show close-approach data ]
Alternate Designations
 1995 US = 1974 QC1 = 1974 SL3 = 1977 DS = 1979 RL = 1987 AS 
Ephemeris | Orbit Diagram | Orbital Elements | Mission Design | Physical Parameters | Discovery Circumstances | Close-Approach Data ]
ABOUT SSD CREDITS/AWARDS PRIVACY/COPYRIGHT GLOSSARY LINKS
FirstGov 2019-Dec-07 16:52 UT
(server date/time)  
NASA Home Page
Site Manager:   Ryan S. Park
Webmaster  Alan B. Chamberlin